THOR ABLESTAR DEB, 48813

Orbit data source: Space-Track

THOR ABLESTAR DEB, 48813 is space debris in LEO originally from a launch on Thu, 29 Jun 1961 UTC launched from the Air Force Eastern Test Range (AFETR). Debris objects in space refer to the collection of defunct objects orbiting the Earth. Examples of debris include non-operational satellites, rocket bodies, and fragments generated from explosions, collisions, or faulty payload assembly.

Loading next visibility...
Identifier
48813, 1961-015MR
Orbit
LEO
Country
Flag of USUS
Related business
Manufacturer
Unknown
Mission
Spacecraft
Bus & Motor
Unknown
Mass
Unknown
Launch date (UTC)
1961-06-29 (64 years ago)
Launch vehicle
Unknown
Launch site
Air Force Eastern Test Range (AFETR)
Object type
Payload
Rocket body
Debris
Shape & HBR
Unknown shape, 0.1 m
Radar Cross Section
Small (<0.1 m²)

Expand to show TLE details & history
Last TLE update: 1 day ago

TLE from 1 day ago
0 THOR ABLESTAR DEB
1 48813U 61015MR  25303.87174005  .00002257  00000-0  37807-2 0  9995
2 48813  66.6426 253.9749 0447951  53.3317 310.8029 13.14205139570933
Epoch: 2025-10-30T20:55Z
TLE epoch observation values (Epoch: 2025-10-30T20:55:18.340Z)
Latitude
-0.00007°
Longitude
-99.27585°
Altitude
995.981 km
Speed
7.457 km/s
True Right ascension
16h 55m 53s
True Declination
0° 00' 00"
Sunlit
Object was in daylight at epoch
Visualization orbit readout
Latitude
Unknown
Longitude
Unknown
Altitude
Unknown
Speed
Unknown
Apparent Right ascension
Unknown
Apparent Declination
Unknown
Sunlit
N/A
Visualization observer readout
Local Sidereal Time
20:12:31
Azimuth
Unknown
Elevation
Unknown
Doppler factor
Unknown
Orbital elements
Apogee altitude
1,545.107 km
Perigee altitude
865.696 km
Semi-major axis
7,583.539 km
Eccentricity
0.0448
Inclination
66.6426°
RAAN
253.9749°
Arg. of periapsis
53.3317°
True anomaly
306.77331°
Mean anomaly
310.8029°
Eccentric anomaly
308.80275°
Mean motion
3.28651 °/min
Orbital period
109.54 mins
BSTAR
0.0037807
Loading maneuver chart data...
Computing Atmospheric mass density...

Documentation

Showing up to 5 results
|